Meteo Giornale » Osservazioni meteo Francia » Beauvais

ore: 16:00 - Osservazioni Meteo Beauvais
Lat. 49° 28' N Lon. 2° 7' E Alt. 109 metri s.l.m.

coperto Europe/Paris

6 °C

Coperto

Temp. 24 Ore

1 °C

8 °C

Nord-Ovest

13 Km/h

Dew point 3 °C

Umidità 81 %

Visibilità  10 Km

Il sole sorge alle ore 08:38

Il sole tramonta alle ore 17:25

Data e Ora Cielo e Fenomeni T °C DP °C Um. % Pres. hPa Vis. km Vento km/h
Oggi h: 16:00 coperto Coperto 6 3 81 1025 10 NO 13
Oggi h: 15:30 coperto Coperto 6 3 81 1025 10 N/NO 16.7
Oggi h: 15:00 coperto Coperto 6 4 86 1024 10 NO 18.5
Oggi h: 14:30 coperto Coperto 7 4 81 1024 10 N/NO 14.8
Oggi h: 13:30 molto_nuvoloso Molto Nuvoloso 8 4 75 1024 10 NO 22.2
Oggi h: 13:00 nuvoloso Nuvoloso 7 4 81 1024 10 NO 22.2
Oggi h: 12:30 sereno Sereno 6 5 93 1023 10 NO 13
Oggi h: 12:00 poco_nuvoloso Poco Nuvoloso 5 4 93 1023 10 O/NO 16.7
Oggi h: 11:30 molto_nuvoloso Molto Nuvoloso 4 3 93 1023 10 O/NO 20.3
Oggi h: 11:00 molto_nuvoloso Molto Nuvoloso 4 4 100 1023 10 O/NO 11.1
Oggi h: 10:30 molto_nuvoloso Molto Nuvoloso 3 2 93 1022 10 O/NO 14.8
Oggi h: 10:00 molto_nuvoloso Molto Nuvoloso 3 2 93 1022 10 O/NO 13
Oggi h: 09:30 molto_nuvoloso Molto Nuvoloso 3 2 93 1021 10 O/NO 16.7
Oggi h: 09:00 molto_nuvoloso Molto Nuvoloso 3 2 93 1021 10 O 16.7
Oggi h: 08:30 coperto Coperto 2 2 100 1020 10 O 11.1
Oggi h: 08:00 coperto Coperto 2 2 100 1020 10 O 7.4
Oggi h: 07:30 coperto Coperto 3 2 93 1020 10 N 5.5
Oggi h: 07:00 coperto_pioggia Pioggia Debole 3 2 93 1020 10 NO 14.8
Oggi h: 06:30 molto_nuvoloso Molto Nuvoloso 3 3 100 1020 10 O/NO 14.8
Oggi h: 06:00 molto_nuvoloso Molto Nuvoloso 3 3 100 1019 10 O/NO 16.7
Oggi h: 05:00 molto_nuvoloso Molto Nuvoloso 2 2 100 1019 10 O/NO 9.3
Oggi h: 04:00 molto_nuvoloso Molto Nuvoloso 3 3 100 1019 10 O/NO 11.1
Oggi h: 03:30 molto_nuvoloso Molto Nuvoloso 2 2 100 1018 10 O 9.3
Oggi h: 03:00 molto_nuvoloso Molto Nuvoloso 3 3 100 1018 10 N 5.5
Oggi h: 02:30 coperto Coperto 3 3 100 1018 7 O/NO 7.4
Oggi h: 02:00 molto_nuvoloso Molto Nuvoloso 2 2 100 1018 7 N 5.5
Oggi h: 01:30 coperto Coperto 2 2 100 1018 7 O/NO 7.4
Oggi h: 01:00 coperto Coperto 2 2 100 1018 6 O 7.4
Oggi h: 00:30 foschia Foschia 2 2 100 1018 1 O 7.4
Oggi h: 00:00 foschia Foschia 2 2 100 1018 3 O/NO 7.4
Ieri h: 23:30 foschia Foschia 3 3 100 1017 1 O 7.4
Ieri h: 23:00 foschia Foschia 2 2 100 1018 5 O 7.4
Ieri h: 22:30 foschia Foschia 2 2 100 1018 5 O/NO 7.4
Ieri h: 22:00 foschia Foschia 2 2 100 1018 5 NO 9.3
Ieri h: 21:30 foschia Foschia 2 2 100 1018 5 NO 7.4
Ieri h: 21:00 coperto Coperto 2 2 100 1017 6 O 9.3
Ieri h: 20:30 coperto Coperto 2 2 100 1017 6 O 9.3
Ieri h: 20:00 coperto Coperto 2 2 100 1017 7 O/SO 13
Ieri h: 19:30 coperto Coperto 2 2 100 1017 9 SO 14.8
Ieri h: 18:30 coperto Coperto 1 1 100 1018 10 S/SO 13
Ieri h: 18:00 coperto Coperto 1 1 100 1018 10 S/SO 13
Ieri h: 17:30 coperto_pioggia Pioviggine Leggera Foschia 1 1 100 1018 5 S/SO 13
Ieri h: 17:00 coperto Coperto 1 1 100 1018 6 S 18.5